Simultaneous Nadir Overpasses (SNOs) Predictions

Prediction of SNOs between AURA and NPP Satellite Orbit:

Table of predicted SNOs for the next 14.0 days since TLE Epoch: 4/17/2013
Index Date (AURA) Time (AURA) Lat,Lon (AURA) SZA (AURA ) Date (NPP) Time (NPP) Lat,Lon (NPP) SZA (NPP ) Distance(km) Time Diff (sec)
1 04/19/2013 19:58:50 -79.64, -41.70 99.15 04/19/2013 19:57:51 -79.64, -41.65 99.12 0.98 59
2 04/19/2013 20:48:11 79.82, 127.30 80.57 04/19/2013 20:48:30 79.82, 127.31 80.55 0.18 19
3 04/22/2013 12:15:19 -79.72, 74.79 100.19 04/22/2013 12:14:45 -79.73, 74.92 100.19 2.76 34
4 04/22/2013 13:04:40 79.90,-116.19 79.52 04/22/2013 13:05:24 79.90,-116.10 79.48 1.95 44
5 04/25/2013 04:31:48 -79.78,-168.86 101.18 04/25/2013 04:31:40 -79.78,-168.79 101.19 1.51 8
6 04/25/2013
